GFSGL_con_3kmhel_021.txt.gz
Helicity
322 219 137 94 75 37 7 24 81 23 83 143 220 246 237 249 210 230 199 176 154 92 71 109 95 105 114 93 90 90 85 91 68 37 34 30 66 71 79 79 82 95 90
336 237 145 84 75 46 35 32 71 104 163 245 274 303 265 239 265 281 249 242 176 144 98 120 116 184 208 128 88 81 68 82 84 60 57 46 50 52 68 81 70 84 98
306 262 159 83 84 77 64 83 116 154 186 286 367 401 401 338 318 309 283 261 209 169 148 134 110 140 169 188 99 98 69 56 78 89 70 80 75 80 97 79 68 73 91
304 240 187 136 124 120 116 119 177 201 245 337 402 431 441 432 422 395 374 338 286 226 159 149 113 124 149 156 129 77 113 85 71 70 69 82 84 80 102 105 69 73 70
316 225 175 164 128 97 109 137 161 240 294 346 415 439 470 485 512 486 482 557 414 294 184 159 120 113 144 90 200 73 117 103 85 64 90 110 93 85 97 73 58 59 67
297 249 167 140 138 127 138 171 215 210 264 367 425 484 498 487 473 445 483 452 431 329 245 176 144 139 167 250 231 152 169 125 79 98 134 118 90 73 75 67 75 88 79
301 292 221 176 169 176 197 212 245 270 295 340 398 427 444 421 410 398 425 458 421 321 251 202 161 182 282 213 162 97 166 78 73 88 140 114 107 98 126 116 128 134 150
345 292 290 273 194 196 218 246 233 267 261 329 330 382 376 358 336 373 363 380 324 283 236 220 170 173 244 180 168 119 96 134 135 146 138 104 112 111 176 157 147 142 156
407 309 336 320 255 238 238 243 248 242 262 320 338 360 351 407 376 355 359 322 269 253 214 173 173 160 127 132 147 117 97 94 84 67 104 102 84 96 113 167 142 171 164
458 348 352 367 325 324 345 304 303 308 344 377 373 333 367 378 343 320 273 294 270 205 148 153 144 135 83 90 117 114 87 93 81 86 111 120 96 95 79 172 167 160 142
445 415 361 366 370 381 404 378 458 440 414 375 336 318 291 315 262 235 210 203 166 133 129 136 101 76 61 92 95 121 117 128 107 115 112 114 115 113 128 133 87 119 119
500 365 393 369 405 433 478 507 409 358 398 303 268 248 260 240 228 183 160 126 118 146 150 135 67 60 57 63 119 114 145 135 114 111 108 104 115 118 99 86 66 76 133
464 456 420 485 502 523 534 432 419 336 263 229 245 264 234 208 184 153 128 113 141 140 143 93 107 85 85 94 112 105 116 124 118 110 93 86 76 77 81 77 70 84 77
611 573 582 614 604 519 453 382 334 255 259 262 266 249 230 197 190 175 142 117 103 123 123 141 96 92 98 101 102 99 113 114 111 102 91 72 82 103 82 68 69 58 69
778 672 595 571 564 569 484 311 224 289 223 216 198 215 205 181 146 154 138 125 118 94 134 120 114 112 90 70 82 101 106 111 120 98 93 95 128 100 81 63 77 84 89
598 441 422 393 358 311 280 346 447 324 281 242 186 177 156 100 125 119 112 119 96 102 109 94 89 81 87 102 132 131 140 145 127 137 132 134 130 123 80 78 81 84 78
334 317 270 212 210 211 231 241 272 345 307 282 254 181 140 143 185 158 165 146 95 105 93 91 80 91 99 81 88 131 141 158 178 199 209 204 142 91 89 84 68 72 69
173 161 190 166 172 178 182 208 190 188 206 253 260 181 190 192 172 142 138 132 103 66 82 101 98 138 170 157 170 197 217 239 243 231 190 135 107 131 107 71 56 68 65
127 103 94 89 71 75 111 101 111 187 204 179 162 161 166 167 138 127 109 91 87 108 125 124 155 181 180 182 180 155 143 135 106 89 97 126 116 102 76 54 56 51 60
100 19 34 11 40 43 79 142 159 230 179 88 87 96 114 127 108 91 78 86 102 129 149 200 211 207 165 129 117 117 115 98 83 91 87 72 74 75 56 52 54 57 94
161 167 169 131 109 27 24 98 166 151 105 72 74 83 81 69 80 69 42 57 61 128 162 191 158 93 51 61 93 97 88 80 89 111 130 108 84 55 51 48 51 63 94
180 150 160 125 102 99 59 87 170 152 154 139 129 116 137 91 93 69 15 24 41 111 137 120 103 103 89 115 111 109 94 81 93 140 136 112 71 54 45 45 49 74 62
128 97 95 120 99 106 160 189 194 196 214 165 195 171 103 73 85 68 43 35 86 163 182 163 131 109 106 129 104 90 97 151 141 129 123 88 64 58 52 49 60 57 68
90 178 263 316 323 218 217 288 250 204 163 165 145 154 130 63 108 89 142 172 201 205 185 149 155 142 133 156 140 121 133 144 130 106 68 52 38 28 41 43 42 39 68
214 198 194 159 122 181 196 173 185 99 92 124 95 92 82 74 116 134 176 194 168 159 149 164 177 180 157 166 147 136 150 154 116 84 54 45 35 33 44 44 35 50 74
56 60 82 99 123 72 88 90 138 100 77 137 133 131 134 99 122 120 141 145 136 128 141 155 141 147 196 199 151 115 111 111 93 78 67 54 43 49 43 33 34 49 46

GFSGL_con_3kmhel_024.txt.gz
Helicity
330 270 217 142 83 59 8 -2 31 31 26 87 118 132 139 149 163 186 178 201 159 131 124 100 35 55 95 128 150 119 110 134 143 74 36 47 52 47 47 65 66 73 60
360 281 222 145 81 54 40 -2 -4 44 73 97 128 161 167 173 188 218 216 207 248 216 164 177 105 54 63 86 115 123 97 93 165 68 84 61 51 56 73 57 71 88 78
339 282 212 157 103 57 46 44 9 16 80 129 169 210 250 247 226 231 235 272 317 256 218 194 130 142 104 123 156 143 131 79 157 71 51 34 26 36 50 65 86 94 92
345 289 222 191 128 76 51 54 56 83 104 172 219 256 280 300 300 311 302 295 320 273 250 241 180 158 136 130 164 143 211 199 142 142 96 35 37 53 75 75 84 60 35
338 315 238 198 146 78 48 65 87 71 114 174 245 278 320 337 347 388 351 337 351 290 249 238 202 160 133 153 158 203 351 195 174 154 72 58 67 123 116 116 123 92 73
317 289 255 192 159 91 75 90 117 137 149 240 267 317 377 354 320 379 353 360 340 332 301 259 199 139 121 116 172 255 230 194 146 173 83 46 101 118 116 126 126 109 81
334 272 225 215 188 145 121 126 136 163 232 247 302 330 346 347 338 344 320 340 384 322 259 246 224 171 137 164 190 241 192 178 170 149 102 104 110 126 108 108 107 119 126
347 311 243 228 213 181 180 164 179 191 193 247 277 293 305 298 296 307 310 338 306 260 239 229 196 164 174 185 188 201 204 154 115 106 151 114 145 98 125 126 122 129 153
388 361 342 244 237 222 178 197 209 213 205 225 224 256 269 258 247 308 329 311 312 248 212 200 189 173 142 174 180 123 137 113 96 83 108 93 82 80 102 153 135 159 138
389 410 469 378 275 256 221 214 241 229 222 227 232 256 285 248 253 304 334 365 314 265 221 192 166 137 129 143 122 142 144 97 124 94 113 102 95 103 116 150 171 155 138
336 394 457 491 371 278 283 264 231 246 272 265 263 298 262 239 254 310 348 322 244 223 198 155 99 86 79 90 103 152 123 116 105 118 115 100 92 96 115 133 117 126 118
331 376 400 478 464 368 321 314 292 316 326 340 347 258 294 214 251 242 232 206 196 196 149 124 102 81 49 53 86 103 93 121 156 146 134 109 84 100 99 86 78 72 83
398 385 429 424 426 383 407 437 409 386 365 340 275 269 220 213 221 182 164 123 148 146 114 84 88 77 65 73 73 70 122 141 137 146 121 108 107 84 66 85 77 69 71
451 374 402 414 443 405 402 456 455 416 390 300 332 264 232 244 246 195 120 107 112 107 118 122 150 118 103 83 109 135 122 123 130 115 115 98 112 95 95 89 87 76 75
605 519 469 526 578 702 722 576 462 428 284 339 287 245 255 238 147 154 127 135 138 126 194 156 114 91 95 96 101 103 104 121 118 121 104 116 100 113 103 97 91 88 92
558 635 692 768 780 803 795 710 602 263 220 183 181 189 210 178 157 151 141 138 164 190 150 109 95 92 92 99 97 105 119 104 91 106 115 115 118 106 90 86 102 107 98
507 565 668 580 500 377 270 252 259 434 293 227 223 191 139 98 150 155 126 144 154 150 108 103 102 113 107 110 107 88 74 89 124 132 167 163 138 110 100 96 98 88 83
309 296 287 219 159 180 150 225 221 201 205 187 204 171 193 201 169 177 196 229 166 96 98 115 131 131 118 111 108 95 89 101 118 156 167 151 138 133 126 107 84 80 85
203 207 222 172 167 162 152 209 267 199 223 255 321 330 347 344 324 220 150 147 115 94 121 158 143 149 169 154 143 134 131 140 154 161 155 154 142 130 108 88 69 68 82
157 103 137 160 176 166 199 193 191 173 155 213 208 176 156 214 176 108 106 120 111 126 156 173 191 208 160 133 107 89 88 90 103 113 128 137 123 100 76 58 69 75 94
98 114 126 106 71 76 98 63 91 143 143 92 78 61 79 98 80 80 71 68 90 137 177 213 176 132 102 82 61 66 88 104 97 85 96 113 98 82 60 64 64 77 82
104 92 43 21 30 48 68 61 58 59 42 57 77 70 88 92 68 55 55 61 88 114 143 154 119 97 72 49 58 86 98 93 80 99 122 111 108 83 80 67 67 80 76
106 132 164 172 159 197 175 89 103 85 103 140 143 120 97 49 53 61 72 89 64 87 134 163 126 87 55 53 46 82 90 70 70 114 122 98 76 72 66 58 67 70 81
92 125 169 172 161 173 157 127 123 159 194 148 156 134 101 62 48 52 86 97 107 128 180 168 149 115 67 78 61 78 92 116 118 107 108 83 70 58 51 53 63 66 86
76 106 82 112 172 220 216 230 200 142 103 137 138 108 101 16 96 73 42 133 168 170 181 192 166 142 125 52 67 79 95 123 113 105 95 80 71 57 63 61 60 71 76
83 76 87 135 150 124 110 78 38 30 82 128 110 129 120 96 102 70 103 118 172 173 162 214 171 139 95 126 110 82 57 47 79 84 98 88 83 83 75 52 55 65 63

GFSGL_con_3kmhel_030.txt.gz
Helicity
319 328 312 259 254 248 227 164 135 120 77 22 -9 -29 -11 32 54 64 53 73 93 88 89 114 122 132 126 126 127 119 112 105 75 49 63 63 79 109 82 73 78 70 59
430 381 366 355 313 290 235 179 152 123 86 39 1 -30 -23 32 70 85 78 80 108 113 113 130 135 157 151 151 145 134 123 123 114 93 117 119 132 114 129 96 97 78 73
401 380 341 335 306 274 258 205 179 150 101 64 12 -29 -14 42 77 87 108 129 137 132 138 143 142 188 189 169 158 140 126 128 125 137 142 138 140 110 119 99 76 62 73
348 335 338 347 333 277 272 229 186 156 155 77 17 -1 10 72 99 117 144 148 140 137 137 134 151 188 194 192 178 160 145 164 162 140 124 123 120 105 87 119 68 65 91
346 318 301 319 278 256 231 209 150 140 142 108 70 44 58 94 126 167 180 184 172 151 142 140 159 173 162 173 205 176 175 179 191 144 128 129 128 126 112 128 98 90 97
380 298 272 280 267 243 217 191 159 103 107 118 58 49 89 101 139 226 240 210 200 193 182 179 237 176 127 153 161 167 189 220 186 168 141 146 137 164 131 119 123 114 103
372 332 290 291 264 248 230 203 173 128 129 94 75 87 88 118 182 251 256 244 245 231 216 238 242 195 140 157 151 159 173 160 183 170 159 125 130 148 118 110 130 135 128
334 328 295 316 266 252 253 210 203 181 162 138 113 116 126 136 209 255 259 270 259 244 256 245 202 171 177 181 189 191 147 131 129 135 141 116 114 110 114 106 116 128 117
214 291 323 329 290 284 269 233 223 216 190 161 140 150 166 173 242 258 311 283 282 262 273 226 177 134 150 202 216 199 175 156 136 88 132 105 99 105 104 141 123 134 128
267 330 339 325 334 309 303 280 273 264 225 234 217 201 210 198 235 272 318 314 302 278 258 228 213 172 195 223 235 222 208 160 140 117 137 89 103 99 112 115 127 121 129
335 300 289 288 308 335 281 276 310 304 296 289 263 243 205 219 215 271 287 311 291 252 236 208 188 234 186 192 199 207 167 176 139 138 139 122 137 122 127 110 101 113 146
252 244 259 275 277 288 288 304 280 313 293 270 238 233 220 183 226 262 336 360 303 248 202 217 188 220 212 230 225 193 213 194 144 152 125 121 113 111 108 124 131 123 111
148 193 240 239 240 230 321 377 395 336 295 302 351 314 232 229 306 288 307 287 254 246 224 263 311 243 279 277 225 192 180 165 140 124 111 117 123 124 137 127 124 123 105
91 136 185 197 174 154 233 307 272 266 563 506 399 353 396 378 359 423 424 396 323 225 316 292 244 271 313 270 242 185 156 132 121 117 122 134 149 137 120 122 127 158 139
73 70 87 128 173 200 304 307 313 260 249 276 299 305 301 417 442 386 398 327 345 144 258 329 333 335 301 246 216 173 149 133 122 134 140 150 140 128 128 136 131 142 135
31 56 81 136 242 286 356 426 609 334 339 413 406 526 548 318 275 211 109 144 183 224 283 255 268 253 229 210 165 141 112 114 111 134 132 128 110 115 116 127 128 131 123
3 28 51 127 184 247 359 444 474 727 610 483 551 444 301 99 3 31 213 203 191 240 231 225 201 216 185 136 118 119 114 101 129 110 101 97 102 117 123 119 126 125 104
51 82 142 146 120 144 262 361 398 473 538 617 666 403 325 217 100 26 198 354 229 210 187 204 193 167 123 92 114 112 123 142 120 102 99 104 113 119 116 113 114 102 84
57 42 69 140 223 380 483 529 619 668 602 407 290 316 172 87 198 295 405 218 187 148 159 128 149 103 76 104 112 113 129 131 120 118 105 113 110 106 101 97 94 85 86
38 98 40 113 236 375 619 539 508 434 337 231 105 151 303 431 319 292 205 142 139 120 119 87 79 105 114 123 129 153 145 127 119 102 96 96 94 81 89 89 75 77 84
46 22 64 15 134 46 -125 -28 -85 -10 120 207 196 125 113 157 145 120 127 178 157 90 77 95 109 113 116 133 156 147 112 93 70 71 76 74 78 87 81 71 69 69 76
22 -9 -0 -11 -43 9 30 29 36 -8 160 96 46 65 163 134 108 121 131 79 54 70 79 110 101 103 124 141 127 97 67 28 40 59 59 58 80 94 82 75 70 67 74
22 26 8 23 38 56 36 31 39 32 20 20 76 87 90 145 150 109 44 39 43 49 65 89 111 123 127 101 68 37 22 13 33 62 65 81 108 96 81 74 70 68 68
51 41 26 32 37 53 47 41 32 35 67 101 90 88 107 99 102 85 27 18 31 40 56 94 114 116 90 87 63 36 19 25 57 59 73 90 90 77 69 65 67 69 71
123 139 109 125 101 101 119 167 245 134 100 103 74 36 29 35 21 1 10 45 61 76 93 92 77 70 69 91 33 -14 -0 27 46 69 67 71 72 65 56 59 69 76 79
138 133 120 152 202 170 105 82 84 55 42 62 90 87 35 6 -13 37 18 44 93 87 87 75 64 95 113 77 9 3 18 30 43 50 63 69 70 57 54 57 65 76 82

GFSGL_con_3kmhel_033.txt.gz
Helicity
196 175 141 91 87 131 163 140 127 134 98 64 -0 -55 -67 -45 -17 4 8 21 41 47 56 71 81 94 87 91 89 92 92 83 92 84 73 68 71 74 92 105 99 90 87
291 233 197 168 175 178 187 171 145 145 120 104 48 -35 -53 -38 -22 -2 29 34 62 70 69 84 85 102 110 100 96 101 104 91 74 81 66 64 64 92 106 88 90 101 75
234 251 207 196 199 205 209 190 166 154 129 95 65 1 -45 -31 -7 -18 24 55 75 84 84 97 103 137 139 136 128 113 118 108 79 76 77 75 87 86 88 95 86 94 103
172 215 229 243 254 238 239 226 211 186 147 128 125 65 5 -13 3 -17 12 40 55 76 90 93 110 152 150 171 170 150 160 147 142 122 108 99 87 106 91 108 87 65 91
154 187 210 217 233 218 195 213 189 182 156 137 160 110 56 15 -3 6 30 63 82 102 117 109 108 131 159 194 210 203 211 193 191 170 142 129 109 112 100 98 99 90 68
196 196 211 200 263 253 204 216 209 176 151 107 134 141 92 51 26 81 103 105 109 112 143 136 127 150 194 223 192 191 221 234 217 185 148 152 102 105 114 116 108 76 60
190 201 218 241 261 266 232 214 232 192 165 134 103 124 98 64 109 142 151 126 136 147 161 162 150 172 199 204 171 174 185 180 173 151 175 140 118 110 115 138 127 83 74
189 185 189 230 230 263 279 247 258 214 189 189 117 117 107 73 129 173 187 148 156 164 154 170 190 192 201 239 181 175 167 171 171 142 147 102 108 144 115 127 115 96 91
183 216 237 277 300 266 245 239 265 282 214 176 145 113 107 69 124 191 251 149 121 150 168 166 187 199 227 267 259 206 189 187 191 172 150 190 174 153 123 123 118 103 102
197 219 262 286 242 315 254 239 250 248 263 251 222 184 125 97 174 265 268 175 177 190 185 186 208 239 263 328 271 148 183 206 209 246 189 165 136 123 120 100 99 102 108
79 120 177 182 200 228 203 172 140 141 155 287 275 263 238 202 198 259 273 236 232 269 297 276 274 279 311 293 197 196 196 181 210 247 201 175 146 125 123 106 108 105 105
96 100 150 164 149 148 193 179 192 81 188 181 229 218 219 229 198 234 286 226 248 299 303 321 320 263 247 237 208 181 244 202 234 243 186 171 151 122 115 129 116 106 105
78 107 106 118 125 170 180 226 218 258 165 176 159 216 244 312 357 382 353 268 344 383 317 303 281 247 271 237 199 218 220 186 249 221 147 142 128 119 157 160 139 122 105
54 60 65 67 92 115 138 193 125 110 177 154 263 168 170 161 302 426 407 304 352 404 481 486 293 257 227 189 246 256 175 153 187 146 139 156 155 147 149 146 130 120 105
54 34 21 15 38 62 116 110 190 260 227 251 239 217 277 390 512 483 438 603 711 684 552 225 394 273 279 263 261 215 164 163 168 131 158 167 142 144 145 140 125 126 104
91 70 49 31 32 24 126 171 283 285 198 221 249 236 376 494 585 546 416 556 594 513 675 361 293 263 216 249 205 193 141 156 121 136 148 139 140 142 138 130 129 119 106
40 41 70 90 115 131 163 168 161 188 302 167 314 505 570 478 522 456 380 536 447 228 117 182 189 112 153 174 183 146 146 118 127 156 150 134 130 120 119 116 118 109 99
124 118 127 147 166 159 174 217 240 261 282 320 716 606 506 482 367 281 229 382 225 175 440 448 258 185 191 190 147 140 145 147 149 160 139 120 108 98 96 102 104 98 85
192 165 167 204 229 234 246 294 319 337 340 477 631 920 723 591 498 344 244 270 239 233 246 276 238 153 174 146 143 132 133 146 157 147 133 106 90 81 95 98 103 97 85
191 147 116 108 90 109 81 161 308 455 707 783 636 292 380 536 381 194 130 156 201 260 297 208 183 155 161 143 131 146 172 173 169 146 114 97 92 92 91 91 85 74 62
126 128 96 29 44 43 38 64 117 128 221 78 49 18 74 33 43 129 152 138 270 272 133 96 145 160 189 154 163 175 174 178 146 117 102 95 100 86 87 79 75 75 62
104 96 61 42 52 45 12 23 15 38 56 56 94 59 42 62 36 19 55 98 172 93 79 133 167 174 155 159 178 185 182 156 125 97 88 87 86 85 79 68 76 77 63
83 52 54 58 36 1 -0 10 17 22 4 11 32 4 -39 -11 62 47 84 98 119 148 179 169 155 144 147 162 184 180 151 119 87 83 89 85 81 80 73 73 77 71 57
54 55 67 56 36 28 42 46 41 44 63 66 52 33 35 32 24 90 109 158 160 145 109 98 91 113 159 191 194 171 117 97 86 88 89 89 78 86 67 75 75 69 50
129 133 102 88 79 82 67 101 113 124 175 179 127 67 97 151 169 153 150 135 119 79 77 85 85 99 128 149 131 116 137 112 80 105 84 84 79 76 63 71 76 69 48
186 181 183 204 246 199 175 173 144 127 92 105 137 151 165 126 122 108 84 82 81 76 73 67 72 95 114 117 93 101 72 65 87 72 86 91 85 67 61 65 71 61 47

GFSGL_con_3kmhel_036.txt.gz
Helicity
139 172 164 142 92 62 89 110 107 72 81 62 89 27 -10 -34 -33 -43 -53 -42 -11 6 28 55 71 73 62 72 67 53 61 62 76 68 67 129 78 57 107 79 97 76 70
110 138 158 142 146 112 106 99 107 94 94 97 91 70 18 -9 -26 -34 -27 -30 -1 20 43 58 71 88 98 83 94 85 75 85 76 113 107 110 82 85 82 100 73 61 104
98 101 96 111 116 132 112 65 91 108 103 82 87 108 70 23 4 -28 -23 -23 -5 10 33 61 81 112 124 105 110 118 86 89 104 99 107 108 112 100 91 76 91 75 110
46 56 110 121 158 183 167 130 139 153 151 141 131 137 121 64 37 -4 -16 -18 -7 9 31 63 86 131 143 133 138 118 114 107 118 118 127 158 165 130 102 73 105 97 113
53 47 74 110 130 145 175 164 154 143 146 164 180 142 133 91 46 40 18 6 17 22 43 77 104 134 149 157 168 177 161 141 129 172 153 167 182 199 185 86 80 75 119
48 77 63 88 115 136 177 179 163 175 171 164 184 177 138 104 64 73 66 58 61 65 85 107 116 168 174 216 182 194 186 191 161 164 147 173 182 190 153 118 90 81 91
53 93 90 94 114 140 186 192 186 210 180 207 202 211 187 136 138 138 133 87 98 111 128 142 150 159 184 182 207 182 207 232 137 157 154 151 161 158 135 165 89 104 78
113 75 97 116 97 119 178 201 190 213 209 217 225 220 208 184 184 195 164 122 123 124 115 142 173 164 205 189 199 217 221 256 176 160 164 138 120 141 150 102 92 107 83
146 121 100 105 85 90 130 161 152 150 169 159 111 139 190 196 252 264 254 138 96 127 157 145 172 191 231 297 189 200 251 236 221 135 158 200 228 181 162 110 99 84 91
128 102 106 124 122 123 143 154 148 120 132 143 157 139 144 132 261 349 337 203 116 112 147 203 228 256 312 375 285 300 273 244 194 217 185 231 226 195 173 112 84 85 77
63 69 94 117 148 158 166 188 158 157 149 162 166 164 162 155 139 314 397 301 239 229 225 238 217 264 368 430 343 327 309 259 225 223 176 201 187 168 149 117 82 66 96
74 72 88 100 88 79 119 144 151 137 153 174 220 202 162 311 203 258 385 339 305 337 323 313 365 373 382 385 359 328 343 309 299 302 226 203 168 158 117 131 95 89 117
79 105 82 75 44 69 150 114 119 158 208 198 179 155 119 116 201 319 341 322 255 294 259 305 419 477 437 357 428 437 425 254 203 186 221 176 168 109 141 190 121 125 131
94 85 81 73 83 103 140 121 108 131 173 227 255 229 131 110 202 234 295 259 212 192 326 450 722 530 339 459 488 382 348 348 201 171 207 183 165 159 177 147 130 143 98
71 67 72 73 77 90 79 78 69 83 105 135 100 170 145 263 266 344 483 389 333 288 503 696 726 549 551 570 341 316 343 187 162 313 203 201 210 167 126 142 130 114 85
173 133 110 92 83 64 60 58 127 140 220 186 108 143 153 210 281 291 234 356 409 428 545 692 602 602 572 475 268 606 224 179 207 205 184 192 178 138 138 147 122 96 89
212 188 181 156 127 97 70 88 84 144 193 135 178 217 197 203 207 274 390 473 411 394 535 634 592 577 426 488 670 614 505 261 180 161 178 158 140 133 142 138 104 85 76
204 208 160 146 158 171 155 172 189 180 205 206 301 270 316 325 446 533 565 599 631 643 578 606 553 404 437 570 488 366 208 129 109 163 165 156 125 133 131 96 98 69 63
101 117 85 79 105 120 155 186 204 215 204 199 225 271 321 489 591 800 916 569 796 833 653 554 343 289 303 266 193 127 190 139 159 181 145 131 122 114 121 88 79 96 95
127 127 132 139 178 211 198 160 145 107 94 76 108 119 104 184 368 460 545 512 384 42 130 98 106 151 187 201 228 155 141 214 200 146 132 116 122 116 96 78 67 90 76
181 168 127 134 168 179 138 121 83 92 83 75 63 97 89 78 151 92 81 174 113 -4 60 52 136 162 171 182 133 137 155 193 152 120 129 135 138 104 87 77 61 66 77
187 229 208 205 164 132 117 104 91 80 56 45 51 80 106 115 118 92 88 52 72 39 29 43 83 135 124 137 117 144 175 128 126 141 157 134 119 87 83 74 66 76 82
217 278 232 179 140 111 82 72 48 10 12 24 30 8 12 -2 -19 15 40 13 -39 -13 -42 44 78 112 122 126 98 104 115 144 148 155 138 118 97 84 86 74 68 76 80
218 179 129 99 106 81 62 58 47 56 47 58 75 60 40 52 65 24 27 11 5 46 90 125 131 142 127 107 111 102 138 152 159 138 118 95 88 118 91 76 70 78 89
155 186 156 135 114 70 89 106 117 97 83 103 111 123 89 25 -1 10 45 64 89 90 103 97 85 93 91 111 117 164 287 231 115 132 91 112 96 115 71 80 75 82 72
206 159 155 174 179 197 230 197 188 185 185 183 172 122 84 107 145 148 143 121 102 90 90 81 72 58 77 82 121 219 184 153 131 126 97 104 91 87 69 77 83 70 73